User: anonymous   Login
Location: Absher
(46.5583°N, 107.9840°W)
Time: 11:45:54
(UTC+00:00)
Language:

BEESAT - Orbit

View from above orbital plane
View from above orbital plane
View from above satellite
View from above satellite

Ground track
Ground track

The orbit data is extracted from the following two-line orbital elements,

1 35933U 09051C   23091.88429420  .00001701  00000-0  38527-3 0  9997
2 35933  98.5260 321.7999 0004511 251.1335 108.9373 14.57454760718174
Epoch (UTC): 01 April 2023 21:13:23
Eccentricity: 0.0004511
inclination: 98.5260°
perigee height: 698 km
apogee height: 704 km
right ascension of ascending node: 321.7999°
argument of perigee: 251.1335°
revolutions per day: 14.57454760
mean anomaly at epoch: 108.9373°
orbit number at epoch: 71817

The dashed part of the orbit path shows where the satellite is in the earth's shadow,  

DLR